STARLINK-35148, 65844

Orbit data source: Space-Track

STARLINK-35148, 65844 is a payload satellite owned by SpaceX/Seattle (US) in LEO that was launched on Mon, 29 Sep 2025 UTC via an FALCON 9 launch vehicle from the Air Force Western Test Range (AFWTR). Payload-class satellites include a variety of spacecraft equipped with specific instruments for various scientific and technological missions. These include communications satellites like Starlink; space stations such as the ISS; scientific satellites like the Hubble; Earth observation satellites from companies like Planet Labs, Umbra, and HawkEye 360; GPS; miniature CubeSats for education and research; and military/defense satellites.

Loading next visibility...
Identifier
65844, 2025-221X
Orbit
LEO
Country
Flag of USUS
Related business
Manufacturer
SpaceX/Seattle
Mission
Operational Commercial Communications
Bus & Motor
STARLINK V2MO, Unknown motor
Mass
575 kg wet, ~530 kg dry
Launch date (UTC)
2025-09-29 (9 months ago)
Launch vehicle
FALCON 9
Launch site
Air Force Western Test Range (AFWTR)
Object type
Payload
Rocket body
Debris
Shape & HBR
Box + 2 Pan, 17.7 m
Radar Cross Section
36.964 m², Large (>1 m²)

Expand to show TLE details & history
Last TLE update: 10 hours ago

TLE from 10 hours ago
0 STARLINK-35148
1 65844U 25221X   26171.44613205  .00037832  00000-0  11252-2 0  9997
2 65844  53.1608 329.7935 0001204  97.8246 262.2893 15.34400680 40482
Epoch: 2026-06-20T10:42Z
TLE epoch observation values (Epoch: 2026-06-20T10:42:25.809Z)
Latitude
-0.00003°
Longitude
-99.4747°
Altitude
463.713 km
Speed
7.636 km/s
True Right ascension
21h 59m 10s
True Declination
0° 00' 00"
Sunlit
Object was in full shadow at epoch
Visualization orbit readout
Latitude
Unknown
Longitude
Unknown
Altitude
Unknown
Speed
Unknown
Apparent Right ascension
Unknown
Apparent Declination
Unknown
Sunlit
N/A
Visualization observer readout
Local Sidereal Time
07:19:14
Azimuth
Unknown
Elevation
Unknown
Doppler factor
Unknown
Orbital elements
Apogee altitude
463.782 km
Perigee altitude
462.134 km
Semi-major axis
6,841.095 km
Eccentricity
0.00012
Inclination
53.1608°
RAAN
329.7935°
Arg. of periapsis
97.8246°
True anomaly
262.27563°
Mean anomaly
262.2893°
Eccentric anomaly
262.28246°
Mean motion
3.83579 °/min
Orbital period
93.85 mins
BSTAR
0.0011252
Loading maneuver chart data...
Computing Atmospheric mass density...
Loading historical data...
Loading historical data...
Loading historical data...
Loading historical data...
Loading historical data...
Loading historical data...
Loading historical data...

Documentation

Showing up to 5 results
|